Location: Santa Fe
(35.6870°N, 105.9370°W)
Time: 13:56:04
(UTC-06:00)

Amateur Radio Satellites - All Passes

Search period start: 23 October 2014 13:26
Search period end: 24 October 2014 13:26
Location: Santa Fe, 35.6870°N, 105.9370°W

Satellite Date Start Highest point End Downlink Frequencies (MHz)
Time Altitude Azimuth
AO-27 23 Oct 13:30:09 13:34:00 21° 66° (ENE) 13:37:52 436.795 MHz FM
ISS 23 Oct 13:30:56 13:34:14 64° 320° (NW) 13:37:33 145.800 FM
PCSat 23 Oct 13:35:56 13:41:12 49° 60° (ENE) 13:46:25 145.825 MHz
JAS-1B 23 Oct 13:42:22 13:48:22 57° 73° (ENE) 13:53:55 435.800 - 435.900 CW/SSB
Oscar 16 23 Oct 14:00:15 14:05:25 76° 257° (WSW) 14:10:36 437.025 USB, Beacon 2401.1428
AO-Echo 23 Oct 14:07:49 14:12:34 61° 74° (ENE) 14:17:30 ?
KITSAT 1 23 Oct 14:10:55 14:18:03 33° 310° (NW) 14:25:13 435.175 FM
Uribyol 2 23 Oct 14:17:05 14:22:13 65° 74° (ENE) 14:27:24 436.500 FM
ITAMSAT 1 23 Oct 14:22:42 14:27:52 69° 74° (ENE) 14:33:04 435.822 SSB
AO-7 23 Oct 14:30:00 14:34:04 15° 52° (NE) 14:38:08 29.400 - 29.500 MHz
Gurwin Techsat 1B 23 Oct 14:33:58 14:38:58 44° 72° (ENE) 14:44:00 435.225 FM
TMSAT-1 23 Oct 14:46:14 14:51:12 42° 71° (ENE) 14:56:10 436.925 FM
UOSAT-12 23 Oct 14:49:25 14:53:51 50° 115° (ESE) 14:58:23 437.025 FM, 437.400 FM
Oscar 19 23 Oct 14:55:25 14:59:24 22° 265° (W) 15:03:23 437.125 CW, 437.150 USB
Sapphire 23 Oct 14:56:49 15:01:40 34° 251° (WSW) 15:06:30 437.095 MHz 1200 baud AX-25 AFSK
SO-50 23 Oct 15:00:33 15:03:00 14° 315° (NW) 15:05:30 436.795 FM
AO-27 23 Oct 15:08:18 15:13:11 41° 261° (W) 15:18:07 436.795 MHz FM
ISS 23 Oct 15:10:25 15:11:29 11° 337° (NNW) 15:12:33 145.800 FM
PCSat 23 Oct 15:20:26 15:24:10 19° 255° (WSW) 15:27:54 145.825 MHz
JAS-1B 23 Oct 15:35:52 15:39:20 15° 266° (W) 15:42:40 435.800 - 435.900 CW/SSB
AO-Echo 23 Oct 15:49:55 15:51:45 12° 269° (W) 15:53:37 ?
Uosat F 23 Oct 15:52:16 15:56:21 26° 68° (ENE) 16:00:26 435.120 FM
Uribyol 2 23 Oct 15:59:50 16:02:05 13° 268° (W) 16:04:20 436.500 FM
ITAMSAT 1 23 Oct 16:05:56 16:07:47 12° 269° (W) 16:09:38 435.822 SSB
Gurwin Techsat 1B 23 Oct 16:15:19 16:19:05 20° 266° (W) 16:22:53 435.225 FM
AO-7 23 Oct 16:17:14 16:25:28 75° 70° (ENE) 16:33:44 29.400 - 29.500 MHz
TMSAT-1 23 Oct 16:27:22 16:31:14 21° 266° (W) 16:35:08 436.925 FM
UOSAT-12 23 Oct 16:31:02 16:34:16 18° 312° (NW) 16:37:33 437.025 FM, 437.400 FM
Saudisat 1A 23 Oct 16:32:27 16:36:04 24° 51° (NE) 16:39:41 436.775 MHz
JAS-2 23 Oct 16:58:00 17:02:57 29° 65° (ENE) 17:08:26 435.800 - 435.900 CW/SSB, 435.910 FM
Uosat F 23 Oct 17:30:31 17:34:57 32° 262° (W) 17:39:25 435.120 FM
OPAL 23 Oct 17:31:37 17:35:35 24° 98° (E) 17:39:31 ?
Hamsat 23 Oct 17:58:00 18:02:10 62° 76° (ENE) 18:06:19 145.90 MHz
Saudisat 1A 23 Oct 18:11:44 18:15:37 31° 247° (WSW) 18:19:29 436.775 MHz
AO-7 23 Oct 18:13:14 18:18:52 20° 266° (W) 18:24:33 29.400 - 29.500 MHz
SO-67 23 Oct 18:34:35 18:36:35 15° 70° (ENE) 18:38:36 435.3500 MHz FM
JAS-2 23 Oct 18:42:34 18:47:48 37° 265° (W) 18:53:42 435.800 - 435.900 CW/SSB, 435.910 FM
OPAL 23 Oct 19:10:04 19:14:28 33° 292° (WNW) 19:18:51 ?
STRAND 1 23 Oct 19:13:29 19:17:59 30° 97° (E) 19:22:26 ?
ISS 23 Oct 20:02:04 20:05:14 39° 37° (NE) 20:08:23 145.800 FM
SO-67 23 Oct 20:06:31 20:09:20 24° 264° (W) 20:12:10 435.3500 MHz FM
KITSAT 1 23 Oct 20:12:09 20:17:16 18° 40° (NE) 20:22:20 435.175 FM
HO-68 23 Oct 20:19:33 20:25:51 35° 65° (ENE) 20:32:12 435.675 MHz FM
STRAND 1 23 Oct 20:52:42 20:57:02 28° 292° (WNW) 21:01:21 ?
UKube-1 23 Oct 21:03:04 21:06:10 19° 68° (ENE) 21:09:16 145.840 MHz, 145.915 MHz
ISS 23 Oct 21:39:27 21:41:41 17° 232° (SW) 21:43:55 145.800 FM
FUNcube-1 23 Oct 21:40:23 21:43:36 19° 68° (ENE) 21:46:49 145.950 - 145.970 MHz USB
Oscar 11 23 Oct 21:44:26 21:48:36 49° 74° (ENE) 21:52:47 145.825 FM, Beacon 2401.500 USB
SO-50 23 Oct 21:52:06 21:56:19 29° 52° (NE) 22:00:33 436.795 FM
KITSAT 1 23 Oct 22:05:57 22:14:03 76° 61° (ENE) 22:22:06 435.175 FM
HO-68 23 Oct 22:06:47 22:13:23 40° 261° (W) 22:20:03 435.675 MHz FM
RS-15 23 Oct 22:20:11 22:31:03 65° 113° (ESE) 22:41:45 29.354 - 29.394 USB, Beacon 29.352 USB
ZACube-1 23 Oct 22:30:01 22:34:35 70° 76° (ENE) 22:39:08 437.345 MHz
UKube-1 23 Oct 22:38:13 22:42:06 32° 262° (W) 22:46:01 145.840 MHz, 145.915 MHz
FUNcube-1 23 Oct 23:15:28 23:19:42 36° 262° (W) 23:23:54 145.950 - 145.970 MHz USB
UOSAT-12 23 Oct 23:22:20 23:25:58 22° 49° (NE) 23:29:32 437.025 FM, 437.400 FM
Oscar 11 23 Oct 23:23:28 23:25:01 12° 268° (W) 23:26:35 145.825 FM, Beacon 2401.500 USB
MaSat-1 23 Oct 23:26:34 23:30:05 25° 108° (ESE) 23:33:24 437.345 MHz
SO-50 23 Oct 23:32:34 23:36:50 31° 248° (WSW) 23:41:06 436.795 FM
KITSAT 1 24 Oct 00:03:11 00:08:33 20° 258° (WSW) 00:13:55 435.175 FM
RS-15 24 Oct 00:34:17 00:44:01 35° 315° (NW) 00:53:48 29.354 - 29.394 USB, Beacon 29.352 USB
Oscar 10/S400 24 Oct 00:53:43 02:03:47 29° 239° (WSW) 05:37:24 145.825 - 145.975 CW/USB, Beacon 145.810 USB
UOSAT-12 24 Oct 01:01:52 01:06:15 40° 246° (WSW) 01:10:34 437.025 FM, 437.400 FM
MaSat-1 24 Oct 01:02:22 01:05:41 23° 299° (WNW) 01:08:47 437.345 MHz
JAS-1B 24 Oct 01:28:38 01:33:37 20° 96° (E) 01:39:08 435.800 - 435.900 CW/SSB
Oscar 19 24 Oct 01:30:57 01:34:05 16° 93° (E) 01:37:12 437.125 CW, 437.150 USB
Oscar 16 24 Oct 02:15:05 02:20:02 48° 100° (E) 02:24:57 437.025 USB, Beacon 2401.1428
AO-Echo 24 Oct 02:18:17 02:22:45 27° 96° (E) 02:27:10 ?
Uribyol 2 24 Oct 02:33:20 02:37:50 29° 97° (E) 02:42:17 436.500 FM
ITAMSAT 1 24 Oct 02:39:02 02:43:38 31° 97° (E) 02:48:12 435.822 SSB
Gurwin Techsat 1B 24 Oct 02:53:47 02:57:53 22° 95° (E) 03:01:58 435.225 FM
RS-15 24 Oct 02:56:35 03:01:13 13° 348° (NNW) 03:05:54 29.354 - 29.394 USB, Beacon 29.352 USB
TMSAT-1 24 Oct 03:05:44 03:09:42 21° 94° (E) 03:13:39 436.925 FM
Oscar 19 24 Oct 03:08:44 03:13:40 50° 287° (WNW) 03:18:34 437.125 CW, 437.150 USB
JAS-1B 24 Oct 03:17:39 03:24:20 67° 287° (WNW) 03:32:21 435.800 - 435.900 CW/SSB
AO-27 24 Oct 03:23:56 03:29:12 90° 104° (ESE) 03:34:25 436.795 MHz FM
Sapphire 24 Oct 03:52:04 03:57:12 47° 111° (ESE) 04:02:23 437.095 MHz 1200 baud AX-25 AFSK
Oscar 16 24 Oct 03:55:36 03:58:58 18° 295° (WNW) 04:02:19 437.025 USB, Beacon 2401.1428
AO-Echo 24 Oct 03:56:44 04:01:27 33° 290° (WNW) 04:06:10 ?
Uribyol 2 24 Oct 04:12:45 04:17:12 29° 291° (WNW) 04:21:37 436.500 FM
PCSat 24 Oct 04:14:24 04:19:47 83° 115° (ESE) 04:25:14 145.825 MHz
ITAMSAT 1 24 Oct 04:18:37 04:22:59 28° 292° (WNW) 04:27:20 435.822 SSB
AO-7 24 Oct 04:22:52 04:29:53 29° 97° (E) 04:36:51 29.400 - 29.500 MHz
Gurwin Techsat 1B 24 Oct 04:33:01 04:37:55 39° 289° (WNW) 04:42:48 435.225 FM
OPAL 24 Oct 04:43:29 04:48:03 33° 68° (ENE) 04:52:35 ?
TMSAT-1 24 Oct 04:44:47 04:49:44 41° 289° (WNW) 04:54:39 436.925 FM
RS-15 24 Oct 05:13:15 05:20:22 18° 27° (NNE) 05:27:36 29.354 - 29.394 USB, Beacon 29.352 USB
Sapphire 24 Oct 05:36:39 05:40:50 22° 308° (NW) 05:45:03 437.095 MHz 1200 baud AX-25 AFSK
Uosat F 24 Oct 05:40:27 05:45:31 82° 284° (WNW) 05:50:33 435.120 FM
Hamsat 24 Oct 05:48:08 05:50:14 14° 93° (E) 05:52:20 145.90 MHz
JAS-2 24 Oct 05:53:27 06:00:45 41° 97° (E) 06:07:57 435.800 - 435.900 CW/SSB, 435.910 FM
PCSat 24 Oct 06:01:06 06:03:53 14° 313° (NW) 06:06:40 145.825 MHz
AO-7 24 Oct 06:14:52 06:22:54 55° 293° (WNW) 06:30:56 29.400 - 29.500 MHz
OPAL 24 Oct 06:22:38 06:26:53 26° 262° (W) 06:31:08 ?
STRAND 1 24 Oct 06:26:38 06:31:09 33° 69° (ENE) 06:35:42 ?
Saudisat 1A 24 Oct 06:38:44 06:40:02 11° 107° (ESE) 06:41:19 436.775 MHz
Hamsat 24 Oct 07:22:23 07:26:19 40° 286° (WNW) 07:30:16 145.90 MHz
RS-15 24 Oct 07:24:46 07:35:48 59° 55° (NE) 07:47:16 29.354 - 29.394 USB, Beacon 29.352 USB
SO-67 24 Oct 07:32:17 07:35:10 24° 96° (E) 07:38:02 435.3500 MHz FM
JAS-2 24 Oct 07:38:30 07:45:34 40° 292° (WNW) 07:52:38 435.800 - 435.900 CW/SSB, 435.910 FM
PANSAT 24 Oct 07:45:03 07:47:38 17° 165° (SSE) 07:50:14 not established
STRAND 1 24 Oct 08:06:07 08:10:18 25° 264° (W) 08:14:32 ?
Saudisat 1A 24 Oct 08:14:43 08:19:02 60° 302° (WNW) 08:23:24 436.775 MHz
SO-67 24 Oct 09:05:57 09:07:54 15° 290° (WNW) 09:09:51 435.3500 MHz FM
MaSat-1 24 Oct 09:16:08 09:17:27 13° 58° (ENE) 09:18:44 437.345 MHz
PANSAT 24 Oct 09:24:01 09:27:17 27° 177° (S) 09:30:34 not established
HO-68 24 Oct 09:37:05 09:43:59 47° 100° (E) 09:50:50 435.675 MHz FM
Oscar 11 24 Oct 09:37:22 09:38:37 11° 92° (E) 09:39:52 145.825 FM, Beacon 2401.500 USB
RS-15 24 Oct 09:37:46 09:47:39 37° 253° (WSW) 09:57:58 29.354 - 29.394 USB, Beacon 29.352 USB
ZACube-1 24 Oct 10:23:47 10:26:20 16° 93° (E) 10:28:52 437.345 MHz
UKube-1 24 Oct 10:28:46 10:33:02 51° 100° (E) 10:37:16 145.840 MHz, 145.915 MHz
KITSAT 1 24 Oct 10:41:24 10:44:16 12° 99° (E) 10:47:08 435.175 FM
MaSat-1 24 Oct 10:52:16 10:52:52 11° 256° (WSW) 10:53:27 437.345 MHz
PANSAT 24 Oct 11:03:58 11:06:59 22° 190° (S) 11:10:00 not established
FUNcube-1 24 Oct 11:07:21 11:11:31 53° 100° (E) 11:15:34 145.950 - 145.970 MHz USB
Oscar 10/S400 24 Oct 11:08:56 11:33:35 25° 154° (SSE) 11:47:59 145.825 - 145.975 CW/USB, Beacon 145.810 USB
Oscar 11 24 Oct 11:10:53 11:15:04 51° 286° (WNW) 11:19:14 145.825 FM, Beacon 2401.500 USB
HO-68 24 Oct 11:25:19 11:31:21 30° 296° (WNW) 11:37:23 435.675 MHz FM
ZACube-1 24 Oct 11:59:00 12:02:51 34° 288° (WNW) 12:06:38 437.345 MHz
SO-50 24 Oct 12:05:50 12:08:31 16° 108° (ESE) 12:11:14 436.795 FM
UKube-1 24 Oct 12:06:50 12:08:44 13° 295° (WNW) 12:10:38 145.840 MHz, 145.915 MHz
KITSAT 1 24 Oct 12:30:19 12:38:22 79° 115° (ESE) 12:46:28 435.175 FM
ISS 24 Oct 12:41:49 12:45:06 64° 136° (SE) 12:48:24 145.800 FM
Sapphire 24 Oct 12:43:28 12:47:39 22° 52° (NE) 12:51:49 437.095 MHz 1200 baud AX-25 AFSK
Oscar 19 24 Oct 12:45:11 12:48:42 19° 66° (ENE) 12:52:13 437.125 CW, 437.150 USB
FUNcube-1 24 Oct 12:46:08 12:47:22 11° 295° (WNW) 12:48:35 145.950 - 145.970 MHz USB
AO-27 24 Oct 13:04:02 13:05:34 11° 61° (ENE) 13:07:05 436.795 MHz FM
PCSat 24 Oct 13:05:33 13:10:32 36° 57° (ENE) 13:15:28 145.825 MHz
